Temp
9 9 9 9 9 10 10 10 10 9 10 10 10 10 11 11 11 11 11 12 13 15 15 15 15 15 16 16 16 15 14 14 17 17 19 20 21 20 20 21 21 23 22 21 20
9 9 9 9 9 9 9 9 9 9 9 9 10 10 10 11 11 11 12 12 13 14 15 15 14 15 14 15 15 15 14 15 17 17 19 19 20 19 21 18 21 22 20 19 18
9 9 9 9 9 9 9 8 8 9 9 9 9 10 10 10 11 12 15 13 13 14 15 15 15 15 14 14 15 15 15 16 18 18 19 19 19 20 20 20 20 21 18 19 18
8 8 8 8 8 8 8 8 8 9 9 9 9 9 9 10 12 15 14 14 14 14 14 14 14 14 14 14 15 16 16 17 18 19 18 19 19 18 19 19 20 20 19 20 20
8 8 8 8 8 8 8 8 8 8 9 9 9 9 9 11 11 14 14 15 14 14 14 14 13 13 14 14 15 16 16 17 17 18 18 18 18 17 17 17 17 18 19 19 19
8 8 8 8 8 8 8 7 7 8 8 8 8 8 9 11 13 13 15 14 14 14 13 14 13 14 15 14 15 15 16 17 17 17 18 17 17 16 17 17 16 17 17 17 17
7 7 7 7 7 7 7 7 7 8 8 8 8 8 9 11 13 13 14 14 14 13 13 15 15 15 14 15 15 16 17 16 16 17 17 16 16 15 16 17 17 16 15 16 16
7 7 8 7 7 7 7 7 7 7 7 8 8 8 10 12 13 13 13 14 14 14 14 15 15 15 15 15 15 15 15 15 16 16 17 17 16 17 17 16 16 15 15 15 15
7 7 7 7 7 7 7 7 7 7 7 8 8 8 11 11 12 13 13 13 14 14 15 15 15 15 15 13 14 14 13 14 16 16 17 15 15 17 16 16 14 14 14 15 15
7 7 7 7 7 7 7 7 7 7 7 7 8 9 10 11 12 14 13 13 14 13 14 14 14 13 11 14 13 13 14 14 14 16 15 15 13 15 15 15 14 14 13 13 14
7 7 7 7 7 7 7 7 5 6 7 7 9 11 12 11 13 13 13 14 13 12 13 14 13 14 14 13 13 13 13 14 14 15 15 14 13 14 15 14 14 13 14 15 16
7 7 6 6 7 7 7 5 7 6 6 8 9 11 11 12 12 13 13 13 14 13 12 12 14 14 13 14 14 14 13 13 13 14 15 13 12 14 15 15 15 16 16 16 15
6 6 6 6 6 7 6 6 7 6 7 9 9 10 12 14 13 13 13 13 13 13 13 14 13 14 15 14 14 13 14 13 13 13 13 11 13 13 15 14 15 14 14 14 14
7 6 6 6 6 6 6 7 6 6 3 8 9 11 11 14 12 14 12 13 12 11 10 12 12 13 13 13 14 13 13 14 13 13 12 11 12 12 13 12 13 12 11 11 12
6 6 6 6 5 5 6 7 6 6 3 9 9 10 12 13 12 13 11 12 13 12 11 11 11 13 13 13 13 13 13 12 11 10 11 11 10 12 12 14 16 13 11 11 11
6 6 6 6 6 6 7 7 6 3 6 9 10 11 11 12 12 13 14 14 13 13 13 12 13 13 13 12 14 11 11 9 8 9 8 10 10 12 14 14 13 12 11 10 10
6 6 6 7 6 6 6 5 4 6 7 10 11 12 12 12 12 13 13 12 12 11 11 12 12 13 13 12 12 11 11 8 8 6 10 9 10 11 12 12 13 12 11 10 10
7 6 6 6 6 6 6 5 8 8 8 10 12 11 11 12 12 12 12 11 11 11 9 10 11 13 13 12 12 11 11 8 11 8 9 9 10 13 13 14 13 13 12 11 11
8 7 6 6 6 6 4 5 7 8 8 11 12 11 11 11 12 11 11 11 11 11 10 9 10 12 12 12 12 11 8 10 7 6 5 9 9 12 13 12 12 11 11 11 12
8 6 7 7 6 6 6 9 8 8 12 10 10 11 10 10 11 11 11 12 12 12 12 11 9 11 12 12 11 12 10 9 5 8 10 10 9 11 14 13 12 11 11 11 12
7 5 8 7 7 6 8 8 11 12 11 11 9 10 10 11 11 11 11 12 12 11 11 11 10 11 12 11 10 10 9 8 7 6 7 9 12 10 12 13 13 10 11 11 11
5 5 9 7 7 7 8 8 9 10 10 11 11 11 11 11 10 11 10 11 11 11 12 12 9 6 11 11 10 10 10 8 6 7 6 6 9 12 11 12 12 12 12 11 10
4 4 9 7 9 9 9 10 10 11 11 12 12 12 12 11 11 11 11 12 11 12 12 11 8 6 9 11 10 10 9 9 7 6 4 7 11 12 11 12 13 14 14 11 9
4 5 5 7 7 9 10 9 11 11 12 12 12 12 12 12 11 11 11 12 11 12 13 12 9 8 8 8 9 8 9 8 8 5 8 8 9 13 12 14 15 14 12 10 10
3 6 7 7 7 8 9 9 10 10 11 11 12 12 12 11 11 11 11 12 12 13 12 11 7 7 9 9 9 10 10 8 8 9 8 10 9 12 13 14 14 12 10 10 7
5 6 8 6 6 7 8 10 10 11 10 12 11 12 12 11 12 10 11 11 12 12 11 10 8 7 6 9 8 8 8 9 9 9 10 11 10 13 14 14 13 11 9 8 6
4 5 6 6 6 8 9 10 11 11 11 10 11 11 11 11 11 11 12 11 11 10 10 11 8 7 7 8 8 9 8 9 9 9 11 10 12 13 12 13 12 9 8 7 6
Height
793 789 786 782 780 779 777 776 776 774 772 769 768 767 764 765 766 765 764 764 765 766 768 773 778 780 781 784 785 788 805 810 800 803 795 785 786 781 778 781 779 774 776 773 773
790 786 783 779 776 773 773 772 772 770 769 768 766 766 763 760 762 758 756 759 763 766 769 770 775 778 783 785 786 789 801 797 788 789 789 787 786 786 783 788 781 777 776 775 775
787 783 779 776 772 770 767 769 769 768 766 765 763 763 762 758 760 748 746 753 758 763 767 770 773 776 783 785 785 787 791 786 782 782 781 786 787 783 785 787 783 783 783 779 780
783 779 776 773 770 768 767 763 765 764 764 762 761 761 759 758 757 742 743 746 753 760 765 768 772 778 783 785 781 787 783 782 780 778 782 785 783 787 785 783 778 779 781 781 781
781 776 773 770 768 766 764 762 762 761 761 760 760 759 758 754 748 742 742 742 750 757 761 765 772 776 779 780 781 784 782 781 779 779 781 782 786 787 784 779 777 778 778 780 782
778 774 771 768 765 764 762 761 760 758 758 758 757 757 755 748 743 741 742 741 747 752 759 764 768 770 774 777 779 779 780 780 778 780 780 783 784 785 780 776 777 778 778 778 779
774 771 768 765 763 761 759 758 756 755 755 755 755 754 750 742 740 741 742 742 746 749 756 761 764 768 771 775 774 776 782 782 781 780 781 780 784 785 777 774 774 776 777 776 775
770 768 765 762 760 758 756 754 753 752 752 752 753 754 746 739 739 741 742 741 746 750 755 759 763 768 771 770 776 783 786 792 779 779 777 779 785 775 773 775 774 772 771 772 770
766 764 761 759 757 754 752 751 749 748 749 750 752 752 741 738 740 739 742 741 744 749 754 759 764 768 771 779 784 785 798 794 785 777 776 782 783 773 772 773 776 773 770 767 767
763 761 758 756 754 751 749 746 744 744 746 749 750 750 741 738 735 738 741 741 745 750 755 761 766 773 781 774 789 790 791 793 791 781 780 783 787 774 771 771 772 771 768 765 762
760 757 754 752 751 749 746 743 747 747 746 744 742 735 733 734 736 738 741 741 740 741 757 759 766 766 770 776 779 786 790 790 787 781 782 783 784 775 767 769 769 767 762 758 752
755 752 750 749 748 747 747 747 748 751 749 739 739 736 734 735 737 740 741 743 743 749 757 764 764 765 771 774 777 783 790 792 790 785 784 785 783 770 759 760 757 754 752 750 749
746 746 745 745 746 746 747 747 746 747 745 739 739 736 732 732 737 741 742 744 746 753 756 757 765 764 766 774 776 784 785 792 791 789 790 793 778 770 756 754 755 754 752 751 749
738 737 739 743 747 745 746 746 745 746 767 748 741 737 735 730 740 740 742 746 752 762 768 765 768 766 771 776 777 785 784 785 789 793 800 797 798 778 763 766 760 758 756 753 752
738 734 735 740 744 748 748 746 746 747 788 750 744 741 736 737 740 743 743 750 748 759 766 775 774 769 773 777 777 783 784 790 797 806 805 802 811 779 770 764 756 757 757 755 754
742 737 736 740 743 747 747 747 748 768 764 743 739 736 739 740 742 744 742 742 751 758 764 772 770 770 772 778 775 787 791 805 815 817 834 811 812 781 768 765 764 761 760 758 755
749 745 741 742 746 747 748 749 766 758 760 744 737 735 739 741 746 748 752 757 760 769 776 772 775 771 773 781 783 787 797 829 834 846 818 812 811 782 770 766 763 763 761 758 755
758 754 752 749 750 751 750 757 745 748 749 739 735 739 743 744 751 754 755 763 764 768 784 783 785 777 776 780 785 790 793 821 808 832 819 815 805 772 764 759 760 760 760 757 753
761 759 757 755 754 753 756 764 760 752 750 737 739 747 752 752 753 759 764 766 765 766 779 791 790 780 780 780 784 795 814 805 830 844 850 812 795 772 763 762 763 763 761 758 753
760 760 757 754 753 752 751 745 753 752 737 745 751 753 758 760 758 762 767 762 764 764 766 777 795 783 783 782 789 786 799 812 840 836 816 802 804 784 765 763 763 764 763 756 749
759 761 757 754 751 750 754 753 744 742 743 745 756 755 760 759 758 760 767 762 761 768 766 775 785 789 784 789 793 796 806 813 819 832 831 819 782 778 770 764 763 766 760 756 752
762 769 755 753 757 760 755 756 750 747 746 744 747 749 755 759 764 763 768 763 762 765 770 770 790 814 788 789 788 788 796 806 828 831 834 837 798 766 768 765 763 759 754 753 753
769 768 756 755 761 758 758 753 753 747 745 744 745 745 751 758 763 762 763 760 762 763 768 771 794 819 796 789 790 791 796 800 810 826 840 826 788 765 766 762 757 750 747 751 753
770 776 767 761 766 763 758 760 751 747 745 744 747 747 751 754 759 763 763 761 763 762 763 768 788 798 806 801 797 804 796 800 803 830 808 803 786 762 761 753 747 747 751 752 749
774 775 775 774 769 767 763 761 755 753 749 746 746 747 750 758 759 764 763 762 763 761 767 773 798 801 792 790 792 787 786 795 803 796 805 784 786 764 755 750 747 749 752 751 754
778 778 772 774 773 769 764 760 757 754 753 747 749 749 748 754 754 763 762 762 762 767 770 775 795 798 805 786 792 794 788 788 790 786 782 777 774 752 749 747 747 749 754 755 754
783 781 780 774 773 767 766 759 755 752 752 754 751 753 756 755 755 754 754 758 759 768 774 774 789 802 805 791 789 787 778 776 778 777 773 782 759 749 751 747 746 753 755 755 754
Wind_Speed
23 24 23 24 22 19 17 15 15 17 16 18 19 18 20 15 13 13 15 13 23 6 3 17 15 9 3 1 3 3 3 5 6 6 3 1 1 5 1 3 5 2 2 5 11
24 24 24 24 22 22 19 17 12 15 19 18 18 17 17 8 15 17 17 18 20 15 8 17 8 10 3 3 3 4 4 9 6 5 4 2 1 3 4 6 3 3 5 6 20
25 23 24 22 21 20 13 13 12 14 14 17 18 17 20 20 2 8 24 28 21 17 13 12 15 7 5 3 4 4 4 5 5 5 3 3 2 1 1 4 4 2 5 6 2
24 23 22 20 20 17 17 12 15 14 15 15 18 17 18 8 7 2 2 24 25 21 20 8 4 8 6 6 4 3 5 5 4 4 3 3 0 3 4 7 4 2 0 2 4
23 22 20 19 19 17 15 14 14 14 15 15 15 15 10 4 8 5 9 9 29 24 19 9 5 5 7 7 5 4 2 5 5 5 3 3 5 6 6 8 7 5 5 4 3
21 21 20 17 16 16 15 15 14 14 15 14 13 12 7 7 6 16 13 11 28 26 16 13 8 5 5 5 5 6 6 5 4 4 3 4 5 6 5 6 8 5 7 8 6
22 18 18 17 15 14 15 15 14 14 14 14 11 9 6 8 5 6 6 18 25 22 11 15 12 4 5 4 5 4 2 2 5 4 5 4 7 7 9 10 11 9 8 9 10
19 16 18 16 14 15 15 15 15 13 12 10 7 6 5 8 13 16 11 12 22 22 21 17 9 4 2 3 5 6 3 1 3 6 5 8 5 3 8 7 11 11 9 8 10
17 17 18 17 15 15 15 15 15 14 10 9 6 4 5 2 10 22 6 5 19 16 19 19 7 4 2 6 3 2 4 4 4 4 2 7 2 3 2 2 8 9 10 9 8
19 20 18 16 14 13 14 17 13 5 4 5 9 4 3 4 5 4 8 12 7 11 8 6 5 4 2 6 7 5 3 2 4 1 2 4 7 9 8 6 8 9 10 10 9
23 20 17 15 12 11 12 3 4 3 2 5 5 3 1 3 8 3 8 6 6 7 7 8 4 13 14 5 5 5 4 3 3 3 3 6 4 13 10 6 9 9 12 12 14
23 20 20 13 11 9 4 2 3 4 4 10 11 4 7 9 5 4 8 4 3 3 9 4 6 6 9 8 7 7 5 2 4 1 1 6 10 15 14 7 11 14 13 12 9
23 21 18 12 8 3 6 3 8 6 2 4 3 3 3 4 5 4 8 2 8 6 2 6 2 8 11 5 6 2 3 3 4 4 2 7 7 5 4 4 4 7 8 7 9
24 17 14 10 1 2 3 4 1 3 4 2 2 2 3 4 5 3 5 2 4 9 7 5 3 9 8 1 3 3 3 2 2 3 2 4 5 7 6 9 6 7 7 7 8
19 13 8 8 11 2 2 1 3 0 6 3 3 3 6 2 10 2 9 3 6 9 4 3 1 4 7 6 6 3 5 4 3 3 2 3 2 8 4 6 3 7 9 8 7
21 15 10 11 6 2 3 1 1 5 3 1 1 4 6 2 3 3 4 7 6 10 9 4 4 1 3 4 2 8 6 6 4 2 2 2 3 7 1 2 6 6 9 9 9
21 16 13 6 5 8 5 2 4 5 1 3 4 5 6 6 5 4 1 4 4 4 3 5 3 3 4 7 5 6 5 2 4 3 4 1 1 8 6 5 4 7 8 8 8
19 18 19 14 10 6 2 4 6 2 2 4 6 11 5 4 4 2 2 3 5 5 3 4 2 1 2 3 5 2 4 4 4 1 3 1 5 4 4 3 3 2 3 7 11
11 11 8 6 4 9 2 5 2 1 3 9 11 7 4 5 4 3 3 3 2 1 5 4 3 2 4 2 2 3 2 2 6 2 2 3 7 8 4 4 5 7 9 10 11
5 2 4 7 12 5 1 5 1 2 4 6 5 1 3 1 3 3 3 3 4 1 2 3 4 2 2 3 7 3 6 3 3 1 3 4 4 4 3 5 7 9 10 10 12
3 3 3 10 8 3 3 3 3 2 4 4 3 4 4 4 2 3 6 0 1 3 5 3 3 1 2 2 5 2 1 5 4 3 3 2 5 5 4 1 3 7 8 9 11
2 3 10 10 3 1 3 4 5 4 2 3 3 3 3 3 3 2 7 2 5 6 5 2 4 3 2 0 1 2 4 4 4 3 2 2 6 3 5 3 5 10 9 6 6
2 2 5 4 4 4 2 2 2 4 3 1 2 2 2 4 4 2 4 1 7 4 6 5 2 3 3 3 3 2 3 3 4 3 5 4 5 1 4 6 10 10 9 8 9
2 3 4 3 1 2 5 4 4 3 3 3 3 3 4 2 4 4 2 3 6 6 6 5 3 4 5 5 3 3 5 5 5 3 3 5 7 12 12 12 14 11 5 8 10
3 2 1 3 3 4 3 4 4 4 4 4 3 2 5 3 2 3 2 2 3 3 3 4 3 2 3 5 4 4 4 8 8 5 6 3 6 12 14 15 14 4 6 8 9
2 3 3 2 2 4 3 4 5 4 4 3 5 4 3 4 5 7 6 3 4 2 4 1 3 2 3 2 5 5 9 9 10 7 12 15 19 18 16 11 5 4 5 6 7
5 4 1 3 3 2 1 3 5 2 2 4 3 3 4 2 2 4 2 4 5 7 3 4 5 2 4 3 6 5 8 13 5 5 9 8 11 9 8 10 4 4 5 7 8
Wind_Direction
322 321 318 309 290 289 284 286 295 307 308 311 310 325 356 234 236 236 239 223 225 202 247 207 215 203 158 201 137 148 114 184 197 161 217 311 181 330 356 312 336 244 210 300 161
319 319 316 307 305 286 289 283 285 294 302 308 306 317 325 269 235 238 234 226 222 218 188 173 166 144 151 196 188 161 166 192 188 184 186 112 106 306 13 360 314 327 46 47 155
317 314 312 312 313 300 294 301 291 293 298 302 315 313 319 318 250 246 251 220 213 206 187 162 162 138 164 159 197 175 193 181 219 189 178 129 306 248 63 305 222 352 344 12 118
322 321 321 316 313 312 302 293 282 281 295 299 308 315 317 280 219 142 150 211 202 197 196 158 132 150 155 185 182 160 192 177 227 225 159 170 218 318 210 233 181 206 155 348 0
323 324 323 322 320 320 314 306 297 289 292 299 304 308 315 217 251 282 333 213 193 193 187 166 149 143 161 164 125 176 191 200 262 288 222 171 225 225 247 258 272 265 282 267 263
323 329 331 328 326 323 315 308 299 293 292 297 297 311 268 222 261 287 286 181 180 184 178 157 167 182 141 179 159 183 200 245 267 244 248 212 235 161 268 253 262 224 246 271 255
323 324 330 330 324 321 317 313 304 293 289 292 290 306 260 247 208 323 265 192 180 176 157 166 172 147 133 130 186 145 108 241 235 206 230 157 264 222 229 254 259 251 234 247 251
323 324 323 324 324 325 320 312 308 298 296 288 280 274 247 241 222 267 307 180 185 176 171 164 144 107 167 122 43 119 87 188 301 166 234 138 241 191 232 230 263 269 255 240 252
319 316 315 313 318 318 315 307 299 292 283 278 282 215 242 336 187 242 247 164 170 174 176 165 150 159 97 115 113 99 178 189 303 201 196 189 310 274 12 256 262 279 285 271 259
328 320 315 312 314 318 315 305 308 284 244 238 239 201 251 226 167 168 187 148 145 158 122 141 164 123 104 179 187 157 152 247 216 224 117 270 272 279 276 267 244 268 272 274 271
327 317 313 312 313 323 332 1 20 27 247 199 287 212 107 308 154 160 190 167 135 87 128 179 160 193 188 157 140 127 131 180 258 298 314 267 270 281 278 259 266 258 264 264 262
319 311 311 298 311 334 351 59 128 234 304 244 270 273 281 203 144 120 159 152 134 107 121 130 195 170 136 128 121 130 139 227 280 301 288 309 291 268 270 236 236 247 252 260 281
295 298 307 309 309 87 325 265 310 219 252 60 357 327 266 178 110 150 177 63 119 94 169 148 106 123 143 135 152 119 169 184 225 333 53 326 289 313 304 272 325 298 271 280 269
319 277 275 298 76 267 271 315 104 113 87 340 22 182 305 118 52 105 138 153 160 109 14 65 350 149 124 124 112 145 179 139 84 43 262 12 289 307 301 321 318 341 332 291 313
353 352 279 206 126 154 323 13 125 222 81 151 253 292 146 26 136 16 154 194 102 124 166 71 212 130 135 176 180 146 100 98 86 92 17 355 83 270 4 344 326 340 359 358 346
11 26 63 127 170 212 205 121 69 39 82 227 344 171 93 58 52 60 8 55 33 56 84 129 137 160 129 61 82 144 79 56 55 71 17 291 133 282 358 54 318 323 352 3 6
23 43 71 91 113 140 164 41 34 67 302 141 147 119 101 116 80 59 24 64 105 109 55 32 5 14 90 80 37 73 76 350 355 17 219 190 154 254 290 281 256 306 347 358 355
32 50 68 78 108 119 343 36 50 304 259 149 114 74 81 58 83 85 85 82 37 78 122 140 155 101 6 110 163 101 146 153 215 197 276 69 237 251 235 254 284 71 345 345 350
2 32 39 56 14 319 57 50 290 321 271 120 77 71 52 39 101 86 60 107 138 98 117 118 54 43 42 101 99 186 88 151 107 47 41 249 289 309 14 108 47 35 6 337 328
330 339 295 326 332 302 61 93 44 275 94 48 88 78 114 52 71 89 175 181 133 103 149 168 89 13 116 107 37 115 145 81 17 113 273 275 279 244 302 345 357 358 329 325 329
346 26 331 324 328 42 51 24 67 66 56 79 147 107 127 139 105 124 184 229 148 118 64 112 92 64 98 188 165 120 112 58 100 120 164 307 273 210 239 359 340 298 313 310 310
40 27 343 348 54 51 13 337 334 2 358 68 96 97 105 114 99 122 188 226 163 149 125 107 117 132 177 10 215 123 165 143 124 243 88 138 274 267 267 235 289 298 307 302 314
50 285 329 3 40 6 349 336 307 342 357 52 98 77 105 126 119 158 191 150 152 139 155 174 33 58 1 15 36 210 187 126 105 82 200 135 261 184 276 276 298 319 332 339 310
65 17 333 31 103 334 8 341 352 332 328 67 91 88 110 99 28 160 146 350 183 161 129 93 109 147 183 201 141 199 186 182 143 136 192 231 290 293 299 308 319 327 325 325 341
22 68 115 348 341 338 356 343 340 14 343 24 60 136 135 105 81 117 117 82 74 123 94 117 121 109 254 232 199 215 182 185 201 189 183 211 229 277 290 299 305 308 332 343 339
31 2 345 273 279 313 347 350 13 344 7 354 101 40 86 145 181 189 142 154 167 93 129 114 127 119 296 339 211 235 223 206 210 228 255 271 287 280 284 289 277 284 341 332 333
10 318 301 296 321 117 296 310 337 333 67 46 99 90 53 328 247 204 138 124 159 145 136 132 133 108 275 327 302 281 218 200 181 197 209 227 243 299 301 298 314 330 350 346 334